UAL305 KEWR-LDSP

Flight info

Callsign UAL305
Flight time N/A
Altitude 35000
Route MERIT DCT HFD DCT PUT DCT BOS DCT WHALE N251B NICSO/M084F370 DCT 48N050W 49N040W 50N030W 51N020W DCT DINIM DCT ELSOX DCT RATKA/N0481F370 DCT LARLA/N0482F390 DCT OTOFE UN491 POGZI DCT GELTA DCT LUVAL DCT SHARA DCT DEVDI DCT RIPUS DCT RESIA DCT IXONA DCT SAL
Aircraft B772/H-SDE2E3FGHIJ5LORVWXY/A1E2C4

Departure

Time 2026-05-06 12:47
Airport Newark Liberty International Airport (KEWR)

Arrival

Time N/A
Airport Split Saint Jerome Airport (LDSP)
Time Latitude Longitude Altitude Speed Heading
2026-05-06 12:12 40.69879 -74.17779 24 ft 0 kts 270°
2026-05-06 12:36 40.69879 -74.17765 24 ft 2 kts 270°
2026-05-06 12:36 40.69879 -74.17745 24 ft 2 kts 270°
2026-05-06 12:36 40.69877 -74.17726 24 ft 2 kts 301°
2026-05-06 12:36 40.69867 -74.17711 24 ft 2 kts 328°
2026-05-06 12:37 40.69853 -74.17704 24 ft 2 kts 354°
2026-05-06 12:37 40.69839 -74.17705 24 ft 2 kts 20°
2026-05-06 12:37 40.69829 -74.17712 24 ft 0 kts 40°
2026-05-06 12:37 40.69825 -74.17715 24 ft 0 kts 41°
2026-05-06 12:38 40.69827 -74.17713 24 ft 2 kts 41°
2026-05-06 12:38 40.69873 -74.17663 24 ft 12 kts 42°
2026-05-06 12:39 40.69915 -74.17562 24 ft 13 kts 69°
2026-05-06 12:39 40.69981 -74.17453 24 ft 16 kts 46°
2026-05-06 12:39 40.70072 -74.17372 24 ft 15 kts 14°
2026-05-06 12:39 40.70119 -74.17274 24 ft 11 kts 92°
2026-05-06 12:40 40.70112 -74.17175 24 ft 10 kts 96°
2026-05-06 12:40 40.70103 -74.17045 24 ft 16 kts 96°
2026-05-06 12:40 40.70094 -74.16901 24 ft 12 kts 96°
2026-05-06 12:40 40.70086 -74.16782 24 ft 13 kts 95°
2026-05-06 12:41 40.70078 -74.16663 24 ft 13 kts 95°
2026-05-06 12:41 40.70072 -74.16574 24 ft 0 kts 96°
2026-05-06 12:45 40.70068 -74.16515 24 ft 11 kts 96°
2026-05-06 12:45 40.70052 -74.16413 24 ft 11 kts 122°
2026-05-06 12:45 40.69966 -74.16405 24 ft 0 kts 206°
2026-05-06 12:46 40.69813 -74.16501 24 ft 55 kts 206°
2026-05-06 12:46 40.69280 -74.16842 24 ft 113 kts 206°
2026-05-06 12:46 40.68412 -74.17388 48 ft 158 kts 206°
2026-05-06 12:46 40.67401 -74.18047 494 ft 166 kts 205°
2026-05-06 12:47 40.66355 -74.18674 1277 ft 163 kts 204°
2026-05-06 12:47 40.65321 -74.19280 1707 ft 166 kts 202°
2026-05-06 12:47 40.64260 -74.19885 2094 ft 171 kts 205°
2026-05-06 12:47 40.63157 -74.20615 2376 ft 184 kts 207°
2026-05-06 12:48 40.62048 -74.21462 2745 ft 191 kts 215°
2026-05-06 12:48 40.61139 -74.22764 3186 ft 198 kts 239°
2026-05-06 12:48 40.60869 -74.24586 3589 ft 213 kts 271°
2026-05-06 12:48 40.61407 -74.26501 3947 ft 240 kts 294°
2026-05-06 12:49 40.62375 -74.28396 4426 ft 254 kts 298°
2026-05-06 12:49 40.63412 -74.30266 5056 ft 259 kts 299°
2026-05-06 12:49 40.64493 -74.32212 5492 ft 271 kts 298°
2026-05-06 12:49 40.65595 -74.34248 6116 ft 276 kts 298°
2026-05-06 12:50 40.66703 -74.36311 6769 ft 279 kts 299°
2026-05-06 12:50 40.68040 -74.38241 7187 ft 294 kts 316°
2026-05-06 12:50 40.69873 -74.39473 7928 ft 305 kts 339°
2026-05-06 12:50 40.72046 -74.39738 8535 ft 320 kts
2026-05-06 12:51 40.74192 -74.38921 9183 ft 327 kts 24°
2026-05-06 12:51 40.76196 -74.37528 9968 ft 324 kts 27°
2026-05-06 12:51 40.78172 -74.36046 10492 ft 332 kts 31°
2026-05-06 12:51 40.80044 -74.34228 10792 ft 349 kts 43°
2026-05-06 12:52 40.81622 -74.31671 10973 ft 367 kts 58°
2026-05-06 12:52 40.83049 -74.28851 11487 ft 376 kts 58°
2026-05-06 12:52 40.84505 -74.25919 12066 ft 383 kts 59°
2026-05-06 12:52 40.85971 -74.22926 12555 ft 393 kts 59°
2026-05-06 12:53 40.87454 -74.19873 12892 ft 407 kts 59°
2026-05-06 12:53 40.89016 -74.16654 13224 ft 421 kts 59°
2026-05-06 12:53 40.90616 -74.13357 13603 ft 433 kts 59°
2026-05-06 12:53 40.92255 -74.09977 14167 ft 439 kts 58°
2026-05-06 12:54 40.93901 -74.06584 14780 ft 443 kts 58°
2026-05-06 12:54 40.95567 -74.03142 15382 ft 447 kts 58°